Regional Weather Roundup
Issued by NWS

Home | Current Version | Previous Version | Text Only | Print | Product List | Glossary On
Versions: 1 2 3 4 5 6 7 8 9 10 11 12 13 14 15 16 17 18 19 20 21 22 23 24 25 26 27 28 29 30 31 32 33 34 35 36 37 38 39 40 41 42 43 44 45 46 47 48 49 50
000
ASUS45 KREV 301210
RWRNV
NEVADA REGIONAL WEATHER ROUNDUP
NATIONAL WEATHER SERVICE RENO NV
400 AM PST FRI JAN 30 2015

NOTE: "FAIR" INDICATES FEW OR NO CLOUDS BELOW 12,000 FEET WITH NO
SIGNIFICANT WEATHER AND/OR OBSTRUCTIONS TO VISIBILITY.

NVZ001-003-004-301300-
WESTERN NEVADA

CITY           SKY/WX    TMP DP  RH WIND       PRES   REMARKS
RENO           MOCLDY    43  33  68 CALM      30.14F
6HR MIN TEMP:  42; 6HR MAX TEMP:  48;

CARSON CITY    CLOUDY    39  34  81 CALM      30.14F
SLIDE MTN        N/A     28  28 100 NE12        N/A
FALLON         CLOUDY    40  37  89 CALM      30.13F
6HR MIN TEMP:  40; 6HR MAX TEMP:  41;

LOVELOCK       MOCLDY    38  33  82 NE15      30.14F
6HR MIN TEMP:  38; 6HR MAX TEMP:  45;

HAWTHORNE      CLOUDY    43  37  81 CALM      30.13F
$$

NVZ002-CAZ072-073-301300-
NORTHERN AND CENTRAL SIERRA

CITY           SKY/WX    TMP DP  RH WIND       PRES   REMARKS
S. LAKE TAHOE  CLOUDY    32  28  85 CALM      30.13F
6HR MIN TEMP:  32; 6HR MAX TEMP:  35;

TRUCKEE        CLOUDY    30  30 100 CALM      30.15F
SQUAW VLY 8000   N/A     32  32 100 CALM        N/A
BLUE CANYON    CLEAR     45  30  55 VRB7      30.10F
MAMMOTH LAKES  CLOUDY    32  28  86 W3        30.12F
BRIDGEPORT     CLOUDY    32  25  75 CALM      30.11F
$$

NVZ030-031-036-301300-
NORTHERN NEVADA

CITY           SKY/WX    TMP DP  RH WIND       PRES   REMARKS
ELKO           CLOUDY    34  31  88 CALM      30.14F
6HR MIN TEMP:  34; 6HR MAX TEMP:  39;

WINNEMUCCA     PTCLDY    32  29  88 VRB6      30.18F
6HR MIN TEMP:  31; 6HR MAX TEMP:  37;

WENDOVER       CLOUDY    37  30  75 CALM      30.19F
$$

NVZ035-037-301300-
CENTRAL NEVADA

CITY           SKY/WX    TMP DP  RH WIND       PRES   REMARKS
ELY            FOG       34  34 100 N9        30.13F VSB 1
6HR MIN TEMP:  34; 6HR MAX TEMP:  35;

EUREKA           N/A     33  29  85 CALM      30.13F
6HR MIN TEMP:  32; 6HR MAX TEMP:  39;

$$

NVZ013-014-301300-
SOUTH CENTRAL NEVADA

CITY           SKY/WX    TMP DP  RH WIND       PRES   REMARKS
TONOPAH        CLOUDY    40  33  76 N6        30.09F
6HR MIN TEMP:  38; 6HR MAX TEMP:  40;

$$

NVZ017-020-022-301300-
SOUTHERN NEVADA

CITY           SKY/WX    TMP DP  RH WIND       PRES   REMARKS
LAS VEGAS      LGT RAIN  55  44  66 CALM      29.95F
6HR MIN TEMP:  55; 6HR MAX TEMP:  58; 6HR PCP: TRACE;

N. LAS VEGAS   LGT RAIN  55  43  63 N5        29.99F
6HR MIN TEMP:  55; 6HR MAX TEMP:  59; 6HR PCP:  0.01;

NELLIS AFB     LGT RAIN  57  43  58 NE9       29.98F
6HR MIN TEMP:  56; 6HR MAX TEMP:  60;

HENDERSON      LGT RAIN  52  45  77 CALM      30.01F
6HR MIN TEMP:  51; 6HR MAX TEMP:  57; 6HR PCP: TRACE;

MERCURY        CLOUDY    50  40  68 NE13      30.00F
6HR MIN TEMP:  50; 6HR MAX TEMP:  53;

$$


USA.gov is the U.S. government's official web portal to all federal, state and local government web resources and services.